Simultaneous Nadir Overpasses (SNOs) Predictions

Prediction of SNOs between METOP-B and TERRA Satellite Orbit:

Table of predicted SNOs for the next 14.0 days since TLE Epoch: 1/28/2023
Index Date (METOP-B) Time (METOP-B) Lat,Lon (METOP-B) SZA (METOP-B ) Date (TERRA) Time (TERRA) Lat,Lon (TERRA) SZA (TERRA ) Distance(km) Time Diff (sec)
1 01/28/2023 04:07:08 80.97, 153.98 100.56 01/28/2023 04:07:46 80.96, 153.89 100.57 1.67 38
2 01/28/2023 04:57:48 -80.98, -38.36 79.41 01/28/2023 04:57:08 -80.98, -38.28 79.42 1.46 40
3 01/30/2023 20:18:46 80.95, -89.26 99.79 01/30/2023 20:19:16 80.95, -89.22 99.81 0.74 30
4 01/30/2023 21:09:24 -81.00, 79.15 80.09 01/30/2023 21:08:37 -80.99, 79.00 80.13 2.70 47
5 02/02/2023 12:30:23 80.95, 27.79 99.03 02/02/2023 12:30:45 80.94, 27.82 99.03 0.69 22
6 02/02/2023 13:21:01 -81.00,-163.77 80.86 02/02/2023 13:20:06 -80.99,-163.92 80.89 2.76 55
7 02/05/2023 04:41:59 80.96, 145.14 98.26 02/05/2023 04:42:13 80.95, 145.00 98.25 2.62 14
8 02/05/2023 05:32:38 -80.99, -46.76 81.66 02/05/2023 05:31:34 -81.00, -46.69 81.67 1.25 64
9 02/07/2023 20:53:34 80.97, -97.58 97.46 02/07/2023 20:53:39 80.97, -97.66 97.45 1.51 5
10 02/07/2023 21:44:14 -80.99, 70.19 82.50 02/07/2023 21:43:01 -80.99, 70.34 82.51 2.61 73
11 02/10/2023 12:14:32 -80.94,-148.49 83.47 02/10/2023 12:15:45 -80.93,-148.60 83.46 1.92 73



Historial Predications of SNOs between METOP-B and TERRA
